Flag for Germany Weather past 2 weeks in Leipzig, Saxony, Germany

Now
50 °F

Broken clouds.


Feels Like: 44 °F
Forecast: 40 / 48 °F
Wind: 20 mph from Southwest

Location: Leipzig-Schkeuditz

Current Time: Mar 29, 2015 at 11:51:38 AM

Latest Report: Mar 29, 2015 at 11:20 AM


Visibility: N/A

Pressure: 29.59 "Hg

Humidity: 88%

Dew point: 46 °F

Location of LeipzigLocation

Historic Weather in Leipzig — Graph

°F

Leipzig temperature yesterday

Maximum temperature yesterday: 54 °F (at 3:50 PM)
Minimum temperature yesterday: 39 °F (at 5:50 AM)
Average temperature yesterday: 46 °F

Past Weeks' High & Low Weather Summary

 TemperatureHumidityPressure
High63 °F (Mar 17, 2:50 PM)100% (Mar 14, 9:20 AM)30.39 "Hg (Mar 14, 9:20 AM)
Low25 °F (Mar 23, 2:50 AM)28% (Mar 19, 3:20 PM)29.59 "Hg (Mar 26, 12:20 AM)
Average43 °F75%30.09 "Hg
* Reported Mar 14 9:20 AM — Mar 29 10:50 AM, Leipzig, Weather by CustomWeather, © 2015

Note: Actual official high and low records may vary slightly from our data, if they occured in-between our weather recording intervals... More about our weather records

Advertising

Leipzig weather history for previous 24 hours

 ConditionsComfort  
Time TempWeatherWind HumidityBarometerVisibility
10:50 AM
Sun, Mar 29
50 °FPartly sunny.22 mph88%29.62 "HgN/A
10:20 AM50 °FOvercast.22 mph94%29.62 "HgN/A
9:50 AM50 °FPartly sunny.14 mph94%29.62 "HgN/A
9:20 AM50 °FSprinkles. Scattered clouds.14 mph94%29.65 "HgN/A
8:50 AM50 °FSprinkles. Broken clouds.16 mph94%29.65 "Hg6 mi
8:20 AM52 °FPartly sunny.18 mph77%29.65 "HgN/A
7:50 AM50 °FPassing clouds.16 mph82%29.65 "HgN/A
7:20 AM48 °FPassing clouds.17 mph87%29.65 "HgN/A
6:50 AM50 °FPartly cloudy.16 mph82%29.68 "HgN/A
6:20 AM48 °FPartly cloudy.17 mph82%29.68 "HgN/A
5:50 AM48 °FClear.17 mph87%29.68 "Hg10 mi
5:20 AM48 °FPassing clouds.15 mph82%29.71 "HgN/A
4:50 AM46 °FLight rain. Partly cloudy.16 mph87%29.71 "HgN/A
4:20 AM48 °FPartly cloudy.14 mph82%29.74 "HgN/A
3:50 AM48 °FOvercast.14 mph82%29.74 "HgN/A
3:20 AM48 °FPassing clouds.16 mph82%29.77 "HgN/A
1:50 AM48 °FLight rain. Passing clouds.18 mph76%29.77 "HgN/A
1:20 AM48 °FOvercast.13 mph76%29.80 "HgN/A
12:50 AM48 °FOvercast.14 mph71%29.83 "HgN/A
12:20 AM48 °FPassing clouds.12 mph71%29.83 "HgN/A
11:50 PM
Sat, Mar 28
46 °FPassing clouds.12 mph76%29.83 "HgN/A
11:20 PM46 °FLight rain. Passing clouds.12 mph76%29.86 "HgN/A
10:50 PM48 °FLight rain. Overcast.13 mph66%29.86 "HgN/A
10:20 PM48 °FLight rain. Overcast.13 mph66%29.89 "HgN/A
9:50 PM48 °FOvercast.9 mph58%29.89 "HgN/A
9:20 PM48 °FPassing clouds.10 mph58%29.92 "HgN/A
8:50 PM48 °FLight rain. Passing clouds.8 mph54%29.92 "HgN/A
8:20 PM48 °FClear.8 mph54%29.92 "Hg10 mi
7:50 PM46 °FClear.8 mph57%29.92 "Hg10 mi
7:20 PM46 °FClear.7 mph57%29.92 "Hg10 mi
6:50 PM46 °FClear.6 mph57%29.95 "Hg10 mi
6:20 PM48 °FSunny.6 mph50%29.95 "Hg10 mi
5:50 PM50 °FSunny.7 mph43%29.98 "Hg10 mi
5:20 PM52 °FSunny.9 mph41%29.98 "Hg10 mi
4:50 PM52 °FSunny.9 mph44%29.98 "Hg10 mi
4:20 PM54 °FSunny.9 mph38%29.98 "Hg10 mi
3:50 PM54 °FSunny.3 mph41%30.01 "Hg10 mi
3:20 PM52 °FSunny.7 mph44%30.01 "Hg10 mi
2:50 PM52 °FSunny.8 mph44%30.04 "Hg10 mi
2:20 PM50 °FScattered clouds.8 mph43%30.07 "HgN/A
1:50 PM50 °FScattered clouds.10 mph47%30.07 "HgN/A
1:20 PM48 °FScattered clouds.10 mph46%30.09 "HgN/A
12:50 PM46 °FPartly sunny.12 mph50%30.09 "HgN/A
12:20 PM48 °FPartly sunny.12 mph46%30.12 "HgN/A
11:50 AM46 °FPartly sunny.8 mph53%30.12 "HgN/A
11:20 AM45 °FBroken clouds.7 mph57%30.15 "HgN/A
Weather by CustomWeather, © 2015

See weather overviewHow to use our weather pages